[[{"header":{"parameterUnit":"m.s-1","parameterCategory":1,"la1":30.2991,"la2":30.254,"lo1":-89.0895,"lo2":-89.0444,"dy":0.0017,"dx":0.0017,"nx":28,"ny":28,"refTime":"2025-07-13T09:00:00:Z","depth":0,"parameterNumber":2,"parameterNumberName":"U-component_of_WINDS"},"data":[0,0,0,0,0,0,0,0,0,0,0,0,0,0,0,0,0,0,0,0,0,0,0,0,0,0,0,0,0,0,0,0,0,0,0,0,0,0,0,0,0,0,0,0,0,0,0,0,0,0,0,0,0,0,0,0,0,0,0.6318,0.6319,0,0.6432,0.6433,0.6434,0.6489,0.6489,0.6489,0.6489,0.6609,0.6612,0.6615,0,0,0,0,0,0,0,0,0,0,0,0,0,0.6152,0.6154,0.6318,0.632,0.6321,0.6432,0.6433,0.6435,0.6489,0.6489,0.6489,0.6489,0.6608,0.6612,0.6616,0,0,0,0,0,0,0,0,0,0,0,0,0,0.624,0.6155,0.6318,0.6361,0.6366,0.6431,0.6433,0.6435,0.6489,0.6489,0.6489,0.6489,0.6607,0.6611,0.6616,0.6648,0,0,0.6631,0.6633,0,0,0,0,0,0,0,0,0.6235,0.6247,0.6353,0.6358,0.6364,0.6446,0.6419,0.6507,0.6489,0.6442,0.6489,0.6489,0.6555,0.6564,0.6586,0.6654,0.6659,0.6632,0.6635,0.6637,0.6638,0,0,0,0,0,0,0,0.6229,0.6242,0.6363,0.6355,0.6361,0.6376,0.6389,0.6436,0.6498,0.6446,0.6451,0.6463,0.6558,0.6581,0.6589,0.6661,0.6632,0.6636,0.6639,0.6641,0.6761,0.6761,0,0,0,0,0,0,0.6215,0.6236,0.636,0.6367,0.6298,0.6379,0.6393,0.642,0.6498,0.6509,0.6463,0.6465,0.6573,0.6583,0.6594,0.6636,0.6637,0.6641,0.6644,0.6761,0.6761,0.6761,0,0,0,0,0,0,0.6212,0.6226,0.6355,0.6303,0.632,0.6382,0.6412,0.6422,0.6445,0.651,0.6522,0.6475,0.6573,0.6587,0.6634,0.6641,0.6643,0.6648,0.6761,0.6761,0.6761,0.6722,0,0,0,0,0,0,0.6207,0.6224,0.6236,0.6303,0.6323,0.6392,0.6412,0.6424,0.6453,0.6457,0.6524,0.6535,0.6574,0.6626,0.6639,0.6648,0.6652,0.676,0.6761,0.6761,0.6723,0.6721,0.6719,0,0,0,0,0,0.62,0.6221,0.6236,0.6251,0.6339,0.6393,0.6404,0.6447,0.6453,0.6466,0.6508,0.6533,0.6638,0.6631,0.6645,0.6656,0.676,0.6761,0.6761,0.6723,0.6721,0.6719,0,0,0,0,0,0,0.6156,0.6231,0.6248,0.6291,0.6335,0.6402,0.6419,0.6443,0.6487,0.6489,0.6542,0.6557,0.6599,0.6633,0.6623,0.6691,0.6702,0.6705,0.6668,0.6666,0.6664,0.6656,0.6656,0,0,0,0,0,0.615,0.6186,0.6251,0.6282,0.6303,0.6357,0.6382,0.6411,0.646,0.6479,0.6524,0.6571,0.6614,0.6642,0.6686,0.6727,0.6743,0.6742,0.674,0.6738,0.6741,0.6766,0.6766,0.6763,0.6763,0.6763,0,0,0.614,0.6186,0.6206,0.6274,0.6312,0.6349,0.6373,0.6411,0.644,0.6485,0.6532,0.6567,0.6623,0.6667,0.6689,0.6696,0.6745,0.6739,0.6737,0.6741,0.6766,0.6767,0.6767,0.6764,0.6764,0.6764,0,0,0.6142,0.6179,0.621,0.6246,0.6302,0.6338,0.6345,0.6408,0.6432,0.648,0.6515,0.655,0.6624,0.6662,0.6691,0.6706,0.6731,0.6719,0.671,0.6733,0.6734,0.6734,0.674,0.6741,0.6721,0.6721,0.6721,0,0.6123,0.6179,0.6223,0.6259,0.6288,0.6329,0.6361,0.6395,0.6463,0.6483,0.6489,0.6582,0.6623,0.6677,0.668,0.6702,0.6713,0.6712,0.673,0.6731,0.6732,0.6738,0.674,0.672,0.672,0.672,0.672,0,0.6153,0.6192,0.621,0.6273,0.6304,0.6338,0.6388,0.6415,0.6441,0.6476,0.6524,0.6574,0.6629,0.6644,0.667,0.6702,0.6704,0.6719,0.6731,0.6729,0.6736,0.6739,0.6717,0.6718,0.6718,0.6719,0,0,0.613,0.6215,0.6221,0.625,0.6315,0.6346,0.6382,0.6434,0.6456,0.6501,0.6533,0.6594,0.6609,0.6642,0.6673,0.6694,0.6703,0.6707,0.6709,0.6705,0.6741,0.6729,0.6731,0.6719,0.672,0.672,0.6736,0,0.614,0.6205,0.6245,0.6295,0.6331,0.6371,0.6402,0.6446,0.648,0.6517,0.6555,0.6597,0.6613,0.6633,0.6655,0.6697,0.6711,0.6696,0.6751,0.6752,0.6736,0.6734,0.6722,0.6735,0.6739,0.674,0.674,0,0.6161,0.6204,0.6256,0.6316,0.6333,0.636,0.6411,0.6446,0.6496,0.6519,0.6555,0.6587,0.6627,0.6635,0.6692,0.6681,0.6706,0.673,0.6732,0.6739,0.6746,0.6742,0.674,0.6742,0.6744,0.6744,0.6744,0,0.6139,0.621,0.625,0.6274,0.6345,0.6363,0.6394,0.6444,0.6472,0.6517,0.6536,0.6586,0.6613,0.6651,0.6695,0.6696,0.6748,0.6759,0.6769,0.6768,0.6779,0.6778,0.6781,0.6794,0.6794,0.6794,0.6794,0,0.6147,0.6177,0.6241,0.6266,0.6302,0.6348,0.6383,0.6417,0.6461,0.6494,0.6532,0.6562,0.6618,0.6656,0.6691,0.6733,0.6745,0.6766,0.6775,0.6763,0.676,0.678,0.6781,0.6794,0.6794,0.6794,0.6794,0,0.6128,0.6172,0.6219,0.6282,0.6298,0.6322,0.6377,0.6403,0.6438,0.648,0.6492,0.6549,0.6595,0.6642,0.6705,0.6729,0.677,0.6783,0.6753,0.6758,0.6766,0.6764,0.6783,0.6788,0.6796,0.6796,0.6796,0,0.613,0.6155,0.622,0.6244,0.6273,0.6312,0.6341,0.6387,0.6416,0.6475,0.6494,0.6543,0.6585,0.6657,0.6704,0.6753,0.6767,0.677,0.6774,0.6761,0.6767,0.6765,0.6768,0.6768,0.6768,0.6768,0.6767,0,0.613,0.615,0.6189,0.6237,0.627,0.6309,0.6351,0.6369,0.6424,0.6454,0.6501,0.6533,0.6597,0.6645,0.6699,0.6732,0.6759,0.6765,0.677,0.6758,0.674,0.6751,0.6749,0.6765,0.6765,0.6765,0.6765,0.6766,0.6122,0.6146,0.6195,0.6238,0.6273,0.6311,0.6338,0.6377,0.6416,0.6471,0.6496,0.6543,0.6594,0.6669,0.6701,0.6739,0.6747,0.6754,0.6756,0.6757,0.6754,0.6733,0.6749,0.675,0.675,0.675,0.675,0,0.6124,0.6157,0.6196,0.6251,0.6285,0.6306,0.6353,0.638,0.6421,0.6465,0.6504,0.6558,0.6605,0.6656,0.6706,0.6727,0.6741,0.6739,0.6738,0.6745,0.6745,0.6735,0.6727,0.6727,0.6727,0.6727,0.6727,0.6727,0.6128,0.6169,0.6195,0.6254,0.6288,0.6333,0.6358,0.6393,0.6428,0.6487,0.6525,0.6557,0.6604,0.6658,0.6702,0.6716,0.6733,0.6727,0.6745,0.6743,0.6745,0.6747,0.6738,0.6731,0.6731,0.6742,0.6742,0.6742]},{"header":{"parameterUnit":"m.s-1","parameterCategory":1,"la1":30.2991,"la2":30.254,"lo1":-89.0895,"lo2":-89.0444,"dy":0.0017,"dx":0.0017,"nx":28,"ny":28,"refTime":"2025-07-13T09:00:00:Z","depth":0,"parameterNumber":3,"parameterNumberName":"V-component_of_WINDS"},"data":[0,0,0,0,0,0,0,0,0,0,0,0,0,0,0,0,0,0,0,0,0,0,0,0,0,0,0,0,0,0,0,0,0,0,0,0,0,0,0,0,0,0,0,0,0,0,0,0,0,0,0,0,0,0,0,0,0,0,2.3116,2.3115,0,2.3102,2.3102,2.3102,2.3112,2.3113,2.3113,2.3114,2.3098,2.3097,2.3096,0,0,0,0,0,0,0,0,0,0,0,0,0,2.3147,2.3146,2.3116,2.3115,2.3115,2.3102,2.3102,2.3102,2.3112,2.3113,2.3113,2.3114,2.3098,2.3097,2.3096,0,0,0,0,0,0,0,0,0,0,0,0,0,2.3133,2.3146,2.3116,2.3119,2.3119,2.3102,2.3102,2.3102,2.3112,2.3113,2.3114,2.3114,2.3098,2.3097,2.3096,2.3075,0,0,2.3092,2.3092,0,0,0,0,0,0,0,0,2.3134,2.3132,2.3119,2.3119,2.3119,2.311,2.3107,2.3093,2.3112,2.3115,2.3114,2.3114,2.3101,2.31,2.3096,2.3074,2.3073,2.3092,2.3091,2.3091,2.309,0,0,0,0,0,0,0,2.3135,2.3133,2.311,2.3118,2.3118,2.312,2.3119,2.3105,2.3104,2.3115,2.3115,2.3114,2.3101,2.3097,2.3095,2.3073,2.3092,2.3091,2.309,2.309,2.3031,2.303,0,0,0,0,0,0,2.3136,2.3134,2.3111,2.311,2.3128,2.3119,2.3118,2.3112,2.3104,2.3104,2.3113,2.3114,2.3099,2.3097,2.3095,2.3068,2.3091,2.3089,2.3089,2.3031,2.303,2.303,0,0,0,0,0,0,2.3137,2.3134,2.3111,2.3122,2.3119,2.3118,2.3111,2.3111,2.3107,2.3103,2.3103,2.3109,2.3099,2.3097,2.3079,2.3067,2.3089,2.3088,2.3032,2.3031,2.303,2.3014,0,0,0,0,0,0,2.3138,2.3134,2.3127,2.3122,2.3119,2.3097,2.3111,2.3111,2.3105,2.3106,2.3099,2.3099,2.3099,2.3081,2.3078,2.3066,2.3087,2.3033,2.3032,2.303,2.3016,2.3012,2.301,0,0,0,0,0,2.3139,2.3123,2.3126,2.3123,2.3109,2.3096,2.3094,2.3096,2.3104,2.3096,2.3093,2.3099,2.3069,2.3079,2.3076,2.3063,2.3034,2.3032,2.303,2.3017,2.3013,2.301,0,0,0,0,0,0,2.3126,2.3122,2.3126,2.3108,2.3102,2.3098,2.3088,2.3092,2.3083,2.3085,2.3087,2.3085,2.3066,2.3063,2.3074,2.3041,2.3053,2.305,2.3044,2.304,2.3037,2.3037,2.3086,0,0,0,0,0,2.3121,2.3112,2.3108,2.3093,2.309,2.3089,2.3084,2.3085,2.3079,2.3077,2.3073,2.3066,2.3055,2.3047,2.3037,2.3016,2.3013,2.3005,2.3002,2.3,2.2997,2.2983,2.2979,2.3024,2.3024,2.3024,0,0,2.3111,2.3108,2.3101,2.309,2.3086,2.3075,2.3087,2.3075,2.3066,2.3075,2.3058,2.3055,2.3047,2.3026,2.3017,2.3023,2.2984,2.2997,2.2995,2.2994,2.2981,2.2976,2.2973,2.3022,2.3023,2.3023,0,0,2.3086,2.3084,2.307,2.3065,2.3058,2.3058,2.3055,2.3049,2.3047,2.3031,2.3036,2.3025,2.3007,2.3,2.2995,2.2966,2.297,2.2963,2.2947,2.2933,2.293,2.2927,2.2915,2.291,2.296,2.296,2.296,0,2.3074,2.3058,2.3062,2.3049,2.3043,2.305,2.3035,2.303,2.302,2.3016,2.3023,2.2998,2.2994,2.2971,2.2964,2.296,2.2954,2.2963,2.293,2.2927,2.2924,2.2913,2.2908,2.2959,2.296,2.296,2.296,0,2.3043,2.3031,2.3021,2.3011,2.3004,2.299,2.299,2.2983,2.2985,2.2983,2.2965,2.296,2.2948,2.2943,2.2945,2.292,2.2923,2.293,2.2942,2.2919,2.2908,2.2904,2.2958,2.2958,2.2959,2.2959,0,0,2.3009,2.3001,2.2997,2.2992,2.2985,2.2976,2.2962,2.295,2.2943,2.2936,2.2922,2.2906,2.2912,2.2905,2.2907,2.2895,2.287,2.2903,2.2903,2.2896,2.284,2.2833,2.2828,2.2874,2.2873,2.2872,2.284,0,2.2983,2.2959,2.2961,2.2937,2.2926,2.2932,2.292,2.2913,2.2911,2.29,2.2898,2.2885,2.2895,2.2891,2.288,2.2876,2.2859,2.2878,2.2859,2.2859,2.286,2.2823,2.2817,2.2787,2.2836,2.2835,2.2835,0,2.2949,2.294,2.2916,2.2909,2.2904,2.2893,2.2882,2.2872,2.2864,2.2863,2.2855,2.2858,2.2842,2.2855,2.2832,2.2845,2.2837,2.2834,2.2833,2.283,2.2844,2.2817,2.2777,2.2772,2.2828,2.2829,2.2829,0,2.2924,2.2907,2.289,2.2885,2.2878,2.2869,2.2865,2.2858,2.2851,2.2841,2.2836,2.2824,2.2817,2.2807,2.2806,2.2816,2.2782,2.2795,2.2779,2.2778,2.277,2.277,2.2726,2.2768,2.2768,2.2768,2.2768,0,2.2893,2.2878,2.2878,2.2867,2.2849,2.2852,2.2833,2.283,2.2824,2.2811,2.2816,2.2804,2.2805,2.2792,2.2791,2.277,2.2768,2.2765,2.2765,2.2763,2.2763,2.2757,2.2759,2.2767,2.2767,2.2767,2.2768,0,2.2863,2.2863,2.2844,2.2838,2.2836,2.2823,2.2817,2.2806,2.2805,2.2788,2.2785,2.2782,2.2767,2.2765,2.2748,2.2747,2.2721,2.2724,2.2724,2.2724,2.2707,2.2708,2.2656,2.2648,2.2697,2.2696,2.2696,0,2.2842,2.283,2.2823,2.2815,2.2811,2.2799,2.2791,2.2793,2.2784,2.2774,2.2763,2.2749,2.2737,2.2713,2.2708,2.2694,2.2695,2.2678,2.2693,2.2692,2.2693,2.2693,2.269,2.2675,2.2674,2.2674,2.2673,0,2.2805,2.2805,2.2795,2.2784,2.2775,2.2766,2.2757,2.2751,2.2751,2.2741,2.2726,2.2717,2.2699,2.2684,2.267,2.2664,2.2668,2.2669,2.2664,2.2662,2.2661,2.2659,2.2714,2.267,2.267,2.267,2.2671,2.2671,2.2777,2.2766,2.2759,2.2747,2.2741,2.2733,2.2721,2.2718,2.2706,2.2692,2.2694,2.2676,2.2667,2.2649,2.2642,2.2628,2.2633,2.2627,2.2625,2.2622,2.262,2.2665,2.2625,2.2626,2.2626,2.2626,2.2626,0,2.2739,2.2735,2.2723,2.2711,2.2701,2.2707,2.2698,2.2688,2.2673,2.2665,2.2653,2.2635,2.262,2.2614,2.2599,2.2588,2.2589,2.2584,2.2584,2.2582,2.2617,2.2622,2.2583,2.2583,2.2583,2.2583,2.2583,2.2583,2.2717,2.2698,2.2698,2.2675,2.2671,2.2655,2.2649,2.264,2.2634,2.2613,2.2601,2.2598,2.2589,2.2574,2.2559,2.2558,2.2551,2.2545,2.2543,2.2576,2.258,2.2584,2.2588,2.2544,2.2544,2.251,2.2509,2.2509]}]]